Temperature
-0 -0 -0 -0 -0 -0 -0 -0 -0 -0 0 1 1 1 2 2 2 2 2 3 3 3 3 4 4 4 4 4 5 5 5 5 5 5 6 6 6 6
-1 -1 -1 -1 -1 -1 -1 -1 -1 -1 -1 -0 0 0 1 1 1 1 2 2 2 2 3 3 3 3 3 4 4 4 4 4 4 5 5 5 5 5
-2 -2 -2 -2 -2 -1 -1 -1 -1 -1 -1 -1 -1 -0 -0 -0 0 1 1 1 1 2 2 2 2 3 3 3 3 3 3 4 4 4 4 5 5 5
-3 -3 -2 -2 -2 -2 -2 -2 -2 -2 -2 -2 -2 -1 -1 -1 -0 -0 0 0 1 1 1 2 2 2 2 2 3 3 3 3 3 3 4 4 4 4
-3 -3 -3 -3 -3 -3 -3 -3 -2 -2 -3 -3 -2 -2 -2 -1 -1 -1 -1 -0 -0 0 1 1 1 1 1 2 2 2 2 2 2 3 3 3 3 4
-4 -4 -4 -4 -4 -4 -3 -3 -3 -3 -3 -3 -3 -3 -3 -2 -2 -2 -2 -1 -1 -0 -0 0 0 0 1 1 1 1 1 2 2 2 2 2 3 3
-5 -5 -5 -4 -4 -4 -4 -4 -4 -4 -4 -4 -4 -4 -4 -3 -3 -3 -3 -2 -2 -1 -1 -1 -0 -0 -0 0 0 1 1 1 1 1 1 2 2 2
-6 -6 -5 -5 -5 -5 -5 -5 -5 -5 -5 -5 -4 -4 -4 -4 -4 -4 -3 -3 -3 -3 -2 -2 -1 -1 -1 -1 -1 -0 -0 0 0 1 1 1 1 1
-7 -6 -6 -6 -6 -6 -6 -5 -5 -5 -5 -5 -5 -5 -5 -5 -5 -4 -4 -4 -4 -3 -3 -3 -2 -2 -2 -1 -1 -1 -1 -1 -1 -0 -0 0 0 1
-7 -7 -7 -7 -7 -6 -6 -6 -6 -6 -6 -6 -6 -5 -5 -5 -5 -5 -5 -5 -4 -4 -4 -4 -3 -3 -2 -2 -2 -2 -2 -1 -1 -1 -1 -1 -0 -0
-8 -8 -8 -7 -7 -7 -7 -7 -7 -6 -6 -6 -6 -6 -6 -6 -6 -6 -6 -6 -5 -5 -5 -4 -4 -4 -3 -3 -3 -3 -2 -2 -2 -2 -2 -1 -1 -1
-9 -8 -8 -8 -8 -8 -8 -8 -7 -7 -7 -7 -6 -6 -6 -6 -6 -6 -6 -6 -6 -6 -5 -5 -5 -5 -4 -4 -4 -4 -3 -3 -3 -3 -2 -2 -2 -2
-9 -9 -9 -9 -8 -8 -8 -8 -8 -8 -8 -7 -7 -7 -7 -7 -7 -7 -7 -7 -6 -6 -6 -6 -5 -5 -5 -5 -5 -4 -4 -4 -4 -3 -3 -3 -3 -3
-10 -10 -10 -10 -9 -9 -9 -9 -9 -9 -8 -8 -8 -8 -8 -7 -7 -7 -7 -7 -7 -6 -6 -6 -6 -6 -6 -6 -6 -5 -5 -5 -4 -4 -4 -4 -3 -3
-11 -10 -10 -10 -10 -10 -10 -9 -9 -9 -9 -9 -9 -8 -8 -8 -8 -8 -7 -7 -7 -7 -6 -6 -6 -6 -6 -6 -6 -6 -6 -5 -5 -5 -5 -4 -4 -4
-11 -11 -11 -11 -10 -10 -10 -10 -10 -10 -10 -10 -9 -9 -9 -9 -8 -8 -8 -8 -8 -7 -7 -7 -7 -7 -7 -7 -7 -7 -6 -6 -6 -6 -5 -5 -5 -5
-11 -11 -11 -11 -11 -11 -11 -11 -11 -10 -10 -10 -10 -10 -10 -9 -9 -9 -9 -9 -8 -8 -8 -7 -7 -7 -7 -7 -7 -7 -7 -7 -6 -6 -6 -6 -6 -6
-12 -11 -11 -11 -11 -11 -11 -11 -11 -11 -11 -11 -11 -11 -10 -10 -10 -10 -10 -9 -9 -9 -8 -8 -8 -8 -8 -8 -8 -8 -7 -7 -7 -7 -7 -7 -6 -6
-12 -12 -12 -12 -12 -12 -12 -12 -12 -12 -12 -12 -12 -11 -11 -11 -10 -10 -10 -10 -10 -9 -9 -9 -9 -9 -9 -9 -8 -8 -8 -8 -8 -7 -7 -7 -7 -6
-12 -12 -13 -12 -13 -13 -13 -13 -13 -12 -12 -12 -12 -12 -12 -12 -11 -11 -11 -10 -10 -10 -10 -10 -9 -9 -9 -9 -9 -8 -8 -8 -8 -8 -8 -7 -7 -7
-13 -13 -13 -13 -13 -13 -13 -13 -13 -13 -13 -13 -13 -13 -12 -12 -12 -12 -11 -11 -11 -10 -10 -10 -10 -10 -10 -10 -10 -9 -9 -9 -8 -8 -8 -8 -8 -8
-13 -13 -13 -13 -13 -13 -13 -13 -13 -13 -13 -13 -13 -13 -13 -13 -12 -12 -12 -11 -11 -11 -11 -10 -10 -10 -10 -10 -10 -10 -9 -9 -9 -9 -9 -8 -8 -8
-14 -14 -14 -14 -14 -14 -14 -14 -14 -14 -14 -14 -14 -14 -13 -13 -13 -13 -12 -12 -12 -11 -11 -11 -11 -11 -11 -11 -11 -10 -10 -10 -10 -9 -9 -9 -9 -9
Wind_Speed
4 5 5 4 4 4 4 4 5 5 5 4 3 3 3 3 4 5 6 6 7 8 8 8 8 8 8 9 9 8 8 8 8 8 9 9 9 10
4 5 5 4 4 4 4 5 5 6 6 4 4 4 4 5 5 6 7 8 8 8 9 9 9 9 8 8 8 8 8 9 9 9 10 9 9 10
4 5 6 6 5 4 4 5 5 6 7 6 5 4 6 6 6 7 8 8 8 9 9 10 9 9 9 8 8 8 8 9 10 10 10 10 9 9
5 5 6 5 6 5 5 6 6 6 7 8 6 6 6 6 7 7 7 7 8 9 10 10 10 10 9 9 10 9 10 10 11 11 11 11 10 10
5 6 6 6 6 6 6 7 6 6 7 7 7 6 6 5 6 6 7 6 8 9 9 10 11 11 11 11 11 10 11 11 11 11 11 11 11 11
5 6 6 7 7 7 6 7 7 7 7 7 7 6 6 5 5 5 6 5 6 6 8 9 10 11 11 11 11 11 12 12 12 11 11 11 11 11
6 6 7 7 8 8 7 7 7 7 7 7 7 6 6 5 5 5 6 6 6 5 5 6 7 7 8 10 11 12 13 13 13 12 12 12 12 12
7 7 7 8 8 10 10 10 10 9 8 8 7 8 8 7 6 6 6 6 6 4 5 6 5 6 7 8 10 12 12 13 13 13 13 13 13 12
7 7 6 6 7 7 8 10 11 12 12 11 10 10 9 8 7 7 7 8 8 6 5 7 6 7 7 9 11 12 12 12 12 12 12 12 12 12
7 7 7 7 6 7 7 8 8 9 10 10 10 10 9 9 9 9 9 8 8 6 6 7 6 7 6 7 10 12 12 11 11 11 12 11 11 11
7 7 7 7 8 10 8 8 8 8 9 12 12 12 12 12 11 7 7 7 8 7 6 6 6 6 6 6 7 9 10 10 10 11 11 11 11 10
6 6 7 8 9 10 8 7 8 8 8 8 9 10 10 11 12 10 8 8 7 6 5 5 5 4 4 4 5 6 7 9 10 10 10 10 9 8
6 6 5 8 9 9 9 8 9 9 8 7 7 7 6 7 7 8 8 8 8 8 5 4 5 5 5 5 4 5 5 5 6 7 9 10 10 8
6 6 6 9 9 9 8 8 10 8 6 6 6 5 5 6 6 7 9 9 10 10 9 8 6 6 6 7 6 4 5 5 5 5 6 8 10 10
6 8 9 10 9 7 7 9 8 6 5 6 6 6 5 6 6 6 7 8 9 10 9 9 8 7 7 7 6 5 5 5 5 5 5 5 6 6
7 8 9 8 7 6 7 6 5 5 5 6 6 6 5 5 5 5 6 5 5 5 6 7 8 8 7 8 7 6 6 5 5 5 5 5 5 7
6 5 4 4 4 4 4 4 4 4 5 5 5 5 5 5 5 5 5 5 5 6 5 4 5 6 7 6 6 7 6 6 6 5 5 6 6 6
6 5 4 4 4 4 5 5 4 4 4 4 5 5 5 5 5 5 4 5 6 6 5 4 4 3 4 5 6 7 6 6 5 5 5 6 6 6
4 4 4 4 4 4 4 4 5 5 4 4 5 5 5 5 5 5 5 5 5 6 5 4 4 5 6 7 5 6 6 5 5 5 5 5 6 6
4 5 5 5 5 5 5 5 5 5 4 4 5 5 5 5 5 5 5 5 5 5 5 4 5 6 7 7 5 4 5 5 5 6 5 4 4 5
5 5 5 5 5 5 5 5 5 5 5 5 5 5 5 5 5 5 5 7 6 5 5 5 5 5 4 3 3 4 4 5 5 5 4 4 4 4
5 5 5 5 5 5 5 5 5 5 5 5 5 5 5 5 6 6 6 5 5 5 6 5 3 3 3 4 5 4 4 3 3 4 5 6 4 4
5 5 6 5 5 5 5 5 6 6 5 5 5 5 5 5 5 5 5 5 5 5 4 4 3 3 3 4 4 4 4 3 2 2 3 4 4 5
Wind_Direction
248 240 240 245 243 254 249 243 246 254 260 254 246 246 282 282 289 286 283 285 282 282 284 285 283 277 268 261 253 245 246 247 246 249 240 237 239 242
256 250 246 244 242 242 247 250 246 248 256 266 265 277 287 283 281 280 277 279 271 273 276 276 276 274 269 261 254 250 249 248 249 247 237 238 244 246
265 258 254 250 245 243 240 243 245 244 251 264 268 271 274 275 280 278 276 276 271 267 269 268 268 267 261 258 258 253 253 252 251 239 237 236 240 246
272 264 260 254 248 247 241 239 242 245 249 258 265 266 267 271 277 277 278 275 273 270 265 262 261 258 258 258 257 252 252 252 250 236 235 234 236 242
278 272 269 263 257 254 248 245 244 246 249 254 261 264 267 268 274 275 276 274 274 271 264 259 257 256 257 256 253 252 250 250 241 234 236 237 237 240
283 278 272 267 265 265 259 251 249 248 247 250 256 259 261 263 264 268 272 273 275 274 268 263 259 257 253 251 250 249 247 243 236 235 235 236 238 241
283 280 277 275 273 269 263 257 249 248 248 250 254 257 257 253 254 261 266 276 276 269 277 271 264 258 251 248 246 246 246 239 234 235 236 238 238 239
283 283 279 273 273 271 267 263 254 250 249 251 255 252 253 254 256 257 264 270 272 262 272 277 269 263 259 250 249 248 243 240 238 237 237 238 239 239
283 282 278 277 278 273 272 269 264 258 254 251 252 252 254 251 253 257 258 260 265 270 272 273 266 265 264 255 253 248 241 240 241 240 240 240 240 240
283 281 280 279 276 280 280 275 271 265 260 255 253 255 257 257 252 254 258 267 273 264 255 264 267 267 270 262 250 243 239 238 239 243 243 241 238 237
286 284 283 281 280 280 277 275 278 278 274 262 260 261 262 259 255 250 250 253 262 263 250 254 263 273 270 260 250 243 239 240 242 243 242 240 235 235
292 289 283 285 282 282 274 274 275 282 284 275 266 261 260 255 248 242 240 245 256 262 244 246 256 263 268 254 251 254 251 245 243 243 240 237 234 233
292 293 291 295 288 281 275 273 278 286 283 278 273 267 260 252 248 246 245 242 246 254 248 246 252 251 253 267 267 261 253 252 246 241 237 235 231 226
290 294 293 296 293 290 287 286 288 291 285 281 274 270 267 261 256 254 253 254 255 258 255 247 246 245 252 262 267 263 260 252 244 241 237 233 229 227
290 295 296 296 292 289 291 293 291 284 280 280 277 274 273 271 269 263 262 262 264 263 256 245 241 241 243 250 255 257 264 262 242 238 235 232 229 225
293 294 296 295 293 293 294 291 285 283 279 278 283 282 281 274 268 261 260 259 261 263 257 247 242 237 243 247 247 249 249 247 243 243 241 241 237 229
294 289 292 296 295 294 295 293 288 283 282 281 282 285 283 279 274 270 260 255 254 258 263 261 250 245 247 245 246 245 244 249 249 243 241 244 244 235
291 286 288 289 290 293 295 297 298 294 291 288 284 284 283 281 279 273 263 257 255 255 255 254 252 254 252 253 239 242 241 246 250 248 241 242 248 243
284 283 283 286 288 289 290 290 290 291 290 285 284 283 282 280 278 275 268 261 261 260 258 250 240 235 240 249 242 228 240 247 246 250 245 247 252 251
274 275 277 276 277 279 281 283 286 288 285 281 279 280 279 279 278 276 272 266 264 262 259 250 242 239 241 250 256 258 241 243 245 248 254 264 272 267
275 274 272 272 272 273 274 275 276 278 280 279 278 278 277 276 276 276 276 275 269 262 258 256 256 263 266 253 246 257 260 245 247 250 251 252 260 260
273 274 274 272 270 270 271 270 270 272 275 273 274 276 278 277 275 276 276 275 269 262 264 267 271 261 251 242 249 258 270 276 268 261 255 250 245 237
269 270 269 270 269 267 265 264 265 267 267 269 271 273 274 276 278 277 275 275 271 264 264 267 265 257 253 247 247 251 257 268 274 281 282 271 260 263
Height
1494 1494 1495 1495 1496 1497 1497 1498 1500 1499 1498 1498 1498 1498 1499 1499 1500 1500 1501 1501 1502 1503 1504 1504 1505 1506 1507 1508 1509 1510 1511 1512 1513 1514 1516 1517 1519 1520
1489 1489 1490 1490 1491 1492 1493 1493 1494 1495 1494 1493 1494 1494 1494 1495 1495 1495 1496 1496 1497 1497 1498 1499 1500 1500 1502 1502 1503 1504 1505 1506 1508 1509 1510 1511 1513 1515
1484 1484 1485 1485 1486 1487 1487 1488 1489 1489 1489 1488 1489 1490 1490 1490 1490 1490 1491 1491 1492 1492 1492 1493 1494 1495 1495 1496 1497 1498 1499 1501 1502 1503 1505 1506 1508 1509
1479 1480 1480 1480 1481 1482 1482 1483 1484 1484 1485 1484 1484 1484 1485 1485 1485 1485 1485 1486 1486 1486 1487 1487 1488 1489 1489 1490 1491 1491 1493 1494 1495 1497 1498 1500 1502 1503
1475 1475 1475 1475 1476 1476 1477 1478 1478 1479 1479 1479 1479 1479 1479 1480 1479 1479 1480 1480 1480 1481 1481 1481 1482 1483 1483 1484 1484 1485 1486 1487 1489 1490 1492 1494 1495 1497
1470 1470 1470 1470 1471 1471 1472 1472 1473 1473 1474 1473 1473 1473 1473 1474 1474 1474 1474 1474 1474 1475 1475 1475 1476 1476 1477 1478 1478 1479 1480 1481 1482 1484 1485 1487 1489 1490
1465 1465 1465 1465 1465 1466 1466 1467 1467 1468 1468 1468 1468 1468 1468 1468 1468 1468 1469 1469 1469 1469 1469 1469 1470 1470 1471 1471 1472 1473 1473 1474 1476 1477 1479 1480 1482 1483
1461 1460 1460 1460 1460 1460 1460 1461 1462 1462 1462 1462 1462 1462 1462 1463 1463 1464 1464 1463 1463 1463 1463 1463 1464 1464 1464 1465 1466 1466 1467 1468 1469 1470 1472 1473 1475 1476
1456 1455 1455 1454 1454 1454 1454 1455 1455 1456 1456 1457 1456 1456 1457 1457 1458 1458 1458 1458 1457 1457 1458 1457 1458 1457 1458 1459 1459 1460 1461 1461 1462 1464 1465 1466 1467 1469
1452 1450 1450 1449 1449 1449 1449 1449 1449 1449 1450 1450 1450 1450 1451 1452 1453 1453 1453 1452 1452 1452 1452 1451 1451 1451 1452 1452 1453 1454 1454 1455 1456 1458 1459 1459 1460 1462
1447 1446 1445 1444 1444 1444 1444 1444 1443 1443 1444 1444 1444 1444 1444 1445 1446 1447 1447 1447 1446 1446 1447 1446 1445 1445 1445 1446 1446 1447 1448 1449 1450 1451 1452 1453 1454 1455
1443 1441 1440 1439 1439 1439 1439 1438 1438 1438 1438 1437 1437 1437 1437 1438 1439 1440 1440 1441 1440 1440 1440 1441 1440 1440 1439 1439 1440 1441 1442 1442 1443 1444 1445 1447 1448 1449
1438 1437 1435 1434 1434 1434 1434 1434 1433 1433 1432 1432 1431 1431 1431 1432 1432 1433 1434 1434 1434 1434 1435 1435 1435 1435 1435 1433 1434 1435 1436 1436 1437 1437 1439 1440 1441 1443
1435 1433 1432 1431 1430 1429 1429 1428 1428 1428 1427 1426 1426 1426 1426 1426 1426 1427 1427 1428 1428 1428 1429 1429 1429 1429 1429 1428 1428 1428 1429 1430 1431 1431 1432 1433 1434 1436
1431 1430 1428 1427 1426 1425 1424 1424 1423 1423 1422 1421 1421 1420 1421 1420 1420 1421 1421 1421 1421 1421 1422 1423 1423 1423 1423 1422 1422 1422 1423 1423 1424 1425 1426 1427 1428 1429
1428 1426 1425 1424 1423 1421 1420 1419 1419 1418 1417 1417 1416 1416 1416 1415 1415 1415 1415 1415 1415 1415 1416 1416 1417 1417 1417 1417 1417 1417 1417 1418 1418 1419 1420 1420 1421 1422
1425 1423 1421 1420 1419 1417 1416 1416 1415 1414 1413 1413 1412 1412 1411 1411 1410 1410 1410 1410 1409 1409 1409 1410 1411 1411 1411 1411 1411 1411 1412 1412 1413 1413 1414 1414 1415 1416
1421 1419 1418 1417 1415 1414 1413 1412 1411 1410 1410 1409 1409 1408 1408 1407 1406 1406 1405 1405 1404 1404 1404 1405 1405 1405 1406 1406 1407 1406 1407 1407 1407 1408 1408 1408 1408 1410
1417 1416 1414 1413 1412 1411 1410 1409 1408 1407 1406 1406 1405 1404 1404 1403 1402 1402 1401 1400 1400 1400 1400 1400 1400 1400 1400 1400 1400 1401 1402 1401 1402 1402 1402 1403 1403 1404
1413 1412 1411 1410 1408 1407 1406 1405 1404 1403 1402 1402 1401 1401 1400 1399 1398 1398 1397 1396 1395 1395 1395 1395 1395 1395 1395 1395 1394 1395 1396 1396 1396 1396 1397 1397 1397 1398
1409 1408 1407 1406 1404 1403 1402 1401 1400 1399 1398 1397 1397 1396 1396 1395 1395 1394 1393 1392 1392 1391 1391 1390 1390 1391 1391 1391 1390 1389 1390 1391 1391 1392 1392 1392 1392 1392
1404 1403 1402 1401 1400 1399 1398 1397 1396 1395 1394 1393 1393 1392 1392 1391 1391 1390 1389 1389 1388 1388 1387 1387 1387 1387 1387 1386 1385 1385 1385 1386 1386 1387 1387 1388 1387 1387
1400 1399 1398 1397 1396 1395 1394 1393 1392 1391 1390 1389 1389 1388 1388 1387 1387 1386 1386 1385 1384 1384 1383 1383 1383 1383 1383 1383 1382 1382 1381 1381 1381 1382 1382 1382 1383 1384